Year,Month,Day,Hour,Minute,Value (Times are PST for temperature in C)
2008,08,29,00,00,16.80
2008,08,29,00,01,16.80
2008,08,29,00,02,16.80
2008,08,29,00,03,16.90
2008,08,29,00,04,16.90
2008,08,29,00,05,16.80
2008,08,29,00,06,16.80
2008,08,29,00,07,16.80
2008,08,29,00,08,16.80
2008,08,29,00,09,16.80
2008,08,29,00,10,16.70
2008,08,29,00,11,16.60
2008,08,29,00,12,16.40
2008,08,29,00,13,16.20
2008,08,29,00,14,16.10
2008,08,29,00,15,15.90
2008,08,29,00,16,15.80
2008,08,29,00,17,15.80
2008,08,29,00,18,15.70
2008,08,29,00,19,15.70
2008,08,29,00,20,15.60
2008,08,29,00,21,15.60
2008,08,29,00,22,15.60
2008,08,29,00,23,15.60
2008,08,29,00,24,15.50
2008,08,29,00,25,15.50
2008,08,29,00,26,15.50
2008,08,29,00,27,15.50
2008,08,29,00,28,15.50
2008,08,29,00,29,15.50
2008,08,29,00,30,15.50
2008,08,29,00,31,15.50
2008,08,29,00,32,15.50
2008,08,29,00,33,15.50
2008,08,29,00,34,15.40
2008,08,29,00,35,15.30
2008,08,29,00,36,15.20
2008,08,29,00,37,15.10
2008,08,29,00,38,15.00
2008,08,29,00,39,15.00
2008,08,29,00,40,14.90
2008,08,29,00,41,14.80
2008,08,29,00,42,14.80
2008,08,29,00,43,14.70
2008,08,29,00,44,14.60
2008,08,29,00,45,14.60
2008,08,29,00,46,14.50
2008,08,29,00,47,14.40
2008,08,29,00,48,14.40
2008,08,29,00,49,14.30
2008,08,29,00,50,14.30
2008,08,29,00,51,14.20
2008,08,29,00,52,14.20
2008,08,29,00,53,14.20
2008,08,29,00,54,14.20
2008,08,29,00,55,14.20
2008,08,29,00,56,14.20
2008,08,29,00,57,14.20
2008,08,29,00,58,14.20
2008,08,29,00,59,14.20
2008,08,29,01,00,14.10
2008,08,29,01,01,14.10
2008,08,29,01,02,14.10
2008,08,29,01,03,14.10
2008,08,29,01,04,14.10
2008,08,29,01,05,14.10
2008,08,29,01,06,14.10
2008,08,29,01,07,14.00
2008,08,29,01,08,13.90
2008,08,29,01,09,13.90
2008,08,29,01,10,13.90
2008,08,29,01,11,13.80
2008,08,29,01,12,13.80
2008,08,29,01,13,13.80
2008,08,29,01,14,13.80
2008,08,29,01,15,13.80
2008,08,29,01,16,13.70
2008,08,29,01,17,13.70
2008,08,29,01,18,13.70
2008,08,29,01,19,13.80
2008,08,29,01,20,13.80
2008,08,29,01,21,13.80
2008,08,29,01,22,13.80
2008,08,29,01,23,13.80
2008,08,29,01,24,13.80
2008,08,29,01,25,13.80
2008,08,29,01,26,13.80
2008,08,29,01,27,13.80
2008,08,29,01,28,13.80
2008,08,29,01,29,13.70
2008,08,29,01,30,13.70
2008,08,29,01,31,13.60
2008,08,29,01,32,13.50
2008,08,29,01,33,13.50
2008,08,29,01,34,13.50
2008,08,29,01,35,13.50
2008,08,29,01,36,13.40
2008,08,29,01,37,13.40
2008,08,29,01,38,13.40
2008,08,29,01,39,13.40
2008,08,29,01,40,13.40
2008,08,29,01,41,13.40
2008,08,29,01,42,13.40
2008,08,29,01,43,13.40
2008,08,29,01,44,13.40
2008,08,29,01,45,13.40
2008,08,29,01,46,13.40
2008,08,29,01,47,13.30
2008,08,29,01,48,13.30
2008,08,29,01,49,13.30
2008,08,29,01,50,13.30
2008,08,29,01,51,13.30
2008,08,29,01,52,13.30
2008,08,29,01,53,13.30
2008,08,29,01,54,13.30
2008,08,29,01,55,13.30
2008,08,29,01,56,13.30
2008,08,29,01,57,13.30
2008,08,29,01,58,13.20
2008,08,29,01,59,13.20
2008,08,29,02,00,13.20
2008,08,29,02,01,13.20
2008,08,29,02,02,13.20
2008,08,29,02,03,13.20
2008,08,29,02,04,13.20
2008,08,29,02,05,13.20
2008,08,29,02,06,13.20
2008,08,29,02,07,13.20
2008,08,29,02,08,13.20
2008,08,29,02,09,13.20
2008,08,29,02,10,13.10
2008,08,29,02,11,13.10
2008,08,29,02,12,13.10
2008,08,29,02,13,13.10
2008,08,29,02,14,13.10
2008,08,29,02,15,13.00
2008,08,29,02,16,13.00
2008,08,29,02,17,13.00
2008,08,29,02,18,13.00
2008,08,29,02,19,13.00
2008,08,29,02,20,13.00
2008,08,29,02,21,13.00
2008,08,29,02,22,13.10
2008,08,29,02,23,13.10
2008,08,29,02,24,13.10
2008,08,29,02,25,13.10
2008,08,29,02,26,13.20
2008,08,29,02,27,13.20
2008,08,29,02,28,13.20
2008,08,29,02,29,13.20
2008,08,29,02,30,13.30
2008,08,29,02,31,13.30
2008,08,29,02,32,13.30
2008,08,29,02,33,13.30
2008,08,29,02,34,13.30
2008,08,29,02,35,13.30
2008,08,29,02,36,13.30
2008,08,29,02,37,13.30
2008,08,29,02,38,13.30
2008,08,29,02,39,13.40
2008,08,29,02,40,13.40
2008,08,29,02,41,13.40
2008,08,29,02,42,13.50
2008,08,29,02,43,13.50
2008,08,29,02,44,13.50
2008,08,29,02,45,13.50
2008,08,29,02,46,13.50
2008,08,29,02,47,13.50
2008,08,29,02,48,13.60
2008,08,29,02,49,13.60
2008,08,29,02,50,13.70
2008,08,29,02,51,13.70
2008,08,29,02,52,13.80
2008,08,29,02,53,13.90
2008,08,29,02,54,14.10
2008,08,29,02,55,14.40
2008,08,29,02,56,14.70
2008,08,29,02,57,14.90
2008,08,29,02,58,15.00
2008,08,29,02,59,15.10
2008,08,29,03,00,15.20
2008,08,29,03,01,15.30
2008,08,29,03,02,15.40
2008,08,29,03,03,15.50
2008,08,29,03,04,15.50
2008,08,29,03,05,15.50
2008,08,29,03,06,15.60
2008,08,29,03,07,15.60
2008,08,29,03,08,15.70
2008,08,29,03,09,15.70
2008,08,29,03,10,15.80
2008,08,29,03,11,15.80
2008,08,29,03,12,15.80
2008,08,29,03,13,15.80
2008,08,29,03,14,15.90
2008,08,29,03,15,15.90
2008,08,29,03,16,15.90
2008,08,29,03,17,16.00
2008,08,29,03,18,16.10
2008,08,29,03,19,16.10
2008,08,29,03,20,16.10
2008,08,29,03,21,16.10
2008,08,29,03,22,16.10
2008,08,29,03,23,16.10
2008,08,29,03,24,16.10
2008,08,29,03,25,16.10
2008,08,29,03,26,16.20
2008,08,29,03,27,16.20
2008,08,29,03,28,16.20
2008,08,29,03,29,16.20
2008,08,29,03,30,16.20
2008,08,29,03,31,16.30
2008,08,29,03,32,16.30
2008,08,29,03,33,16.30
2008,08,29,03,34,16.30
2008,08,29,03,35,16.30
2008,08,29,03,36,16.30
2008,08,29,03,37,16.30
2008,08,29,03,38,16.30
2008,08,29,03,39,16.30
2008,08,29,03,40,16.30
2008,08,29,03,41,16.30
2008,08,29,03,42,16.40
2008,08,29,03,43,16.40
2008,08,29,03,44,16.40
2008,08,29,03,45,16.40
2008,08,29,03,46,16.40
2008,08,29,03,47,16.40
2008,08,29,03,48,16.30
2008,08,29,03,49,16.30
2008,08,29,03,50,16.30
2008,08,29,03,51,16.30
2008,08,29,03,52,16.30
2008,08,29,03,53,16.30
2008,08,29,03,54,16.30
2008,08,29,03,55,16.30
2008,08,29,03,56,16.30
2008,08,29,03,57,16.30
2008,08,29,03,58,16.20
2008,08,29,03,59,16.20
2008,08,29,04,00,16.20
2008,08,29,04,01,16.20
2008,08,29,04,02,16.20
2008,08,29,04,03,16.20
2008,08,29,04,04,16.20
2008,08,29,04,05,16.20
2008,08,29,04,06,16.20
2008,08,29,04,07,16.20
2008,08,29,04,08,16.20
2008,08,29,04,09,16.20
2008,08,29,04,10,16.10
2008,08,29,04,11,16.10
2008,08,29,04,12,16.10
2008,08,29,04,13,16.10
2008,08,29,04,14,16.10
2008,08,29,04,15,16.10
2008,08,29,04,16,16.10
2008,08,29,04,17,16.10
2008,08,29,04,18,16.10
2008,08,29,04,19,16.10
2008,08,29,04,20,16.10
2008,08,29,04,21,16.10
2008,08,29,04,22,16.10
2008,08,29,04,23,16.10
2008,08,29,04,24,16.10
2008,08,29,04,25,16.10
2008,08,29,04,26,15.90
2008,08,29,04,27,15.90
2008,08,29,04,28,15.90
2008,08,29,04,29,15.80
2008,08,29,04,30,15.80
2008,08,29,04,31,15.80
2008,08,29,04,32,15.80
2008,08,29,04,33,15.80
2008,08,29,04,34,15.80
2008,08,29,04,35,15.80
2008,08,29,04,36,15.70
2008,08,29,04,37,15.70
2008,08,29,04,38,15.70
2008,08,29,04,39,15.70
2008,08,29,04,40,15.60
2008,08,29,04,41,15.60
2008,08,29,04,42,15.60
2008,08,29,04,43,15.60
2008,08,29,04,44,15.60
2008,08,29,04,45,15.60
2008,08,29,04,46,15.60
2008,08,29,04,47,15.60
2008,08,29,04,48,15.60
2008,08,29,04,49,15.60
2008,08,29,04,50,15.60
2008,08,29,04,51,15.60
2008,08,29,04,52,15.60
2008,08,29,04,53,15.60
2008,08,29,04,54,15.60
2008,08,29,04,55,15.60
2008,08,29,04,56,15.60
2008,08,29,04,57,15.60
2008,08,29,04,58,15.50
2008,08,29,04,59,15.50
2008,08,29,05,00,15.50
2008,08,29,05,01,15.50
2008,08,29,05,02,15.50
2008,08,29,05,03,15.50
2008,08,29,05,04,15.50
2008,08,29,05,05,15.50
2008,08,29,05,06,15.50
2008,08,29,05,07,15.50
2008,08,29,05,08,15.50
2008,08,29,05,09,15.50
2008,08,29,05,10,15.50
2008,08,29,05,11,15.40
2008,08,29,05,12,15.40
2008,08,29,05,13,15.40
2008,08,29,05,14,15.40
2008,08,29,05,15,15.50
2008,08,29,05,16,15.40
2008,08,29,05,17,15.30
2008,08,29,05,18,15.20
2008,08,29,05,19,15.00
2008,08,29,05,20,14.90
2008,08,29,05,21,14.80
2008,08,29,05,22,14.80
2008,08,29,05,23,14.80
2008,08,29,05,24,14.80
2008,08,29,05,25,14.80
2008,08,29,05,26,14.80
2008,08,29,05,27,14.70
2008,08,29,05,28,14.70
2008,08,29,05,29,14.60
2008,08,29,05,30,14.50
2008,08,29,05,31,14.40
2008,08,29,05,32,14.30
2008,08,29,05,33,14.30
2008,08,29,05,34,14.20
2008,08,29,05,35,14.20
2008,08,29,05,36,14.10
2008,08,29,05,37,14.10
2008,08,29,05,38,14.00
2008,08,29,05,39,14.00
2008,08,29,05,40,14.00
2008,08,29,05,41,14.00
2008,08,29,05,42,14.00
2008,08,29,05,43,14.00
2008,08,29,05,44,13.90
2008,08,29,05,45,13.90
2008,08,29,05,46,13.80
2008,08,29,05,47,13.80
2008,08,29,05,48,13.80
2008,08,29,05,49,13.80
2008,08,29,05,50,13.80
2008,08,29,05,51,13.80
2008,08,29,05,52,13.80
2008,08,29,05,53,13.80
2008,08,29,05,54,13.90
2008,08,29,05,55,13.90
2008,08,29,05,56,13.90
2008,08,29,05,57,13.90
2008,08,29,05,58,14.00
2008,08,29,05,59,14.10
2008,08,29,06,00,14.20
2008,08,29,06,01,14.30
2008,08,29,06,02,14.40
2008,08,29,06,03,14.40
2008,08,29,06,04,14.50
2008,08,29,06,05,14.60
2008,08,29,06,06,14.60
2008,08,29,06,07,14.60
2008,08,29,06,08,14.70
2008,08,29,06,09,14.80
2008,08,29,06,10,14.80
2008,08,29,06,11,14.80
2008,08,29,06,12,14.90
2008,08,29,06,13,14.90
2008,08,29,06,14,14.90
2008,08,29,06,15,15.00
2008,08,29,06,16,15.00
2008,08,29,06,17,15.00
2008,08,29,06,18,15.00
2008,08,29,06,19,15.00
2008,08,29,06,20,15.10
2008,08,29,06,21,15.00
2008,08,29,06,22,15.00
2008,08,29,06,23,15.00
2008,08,29,06,24,15.00
2008,08,29,06,25,15.00
2008,08,29,06,26,15.00
2008,08,29,06,27,15.00
2008,08,29,06,28,15.00
2008,08,29,06,29,15.00
2008,08,29,06,30,15.00
2008,08,29,06,31,15.00
2008,08,29,06,32,15.00
2008,08,29,06,33,15.00
2008,08,29,06,34,15.00
2008,08,29,06,35,15.00
2008,08,29,06,36,15.00
2008,08,29,06,37,15.00
2008,08,29,06,38,15.00
2008,08,29,06,39,15.00
2008,08,29,06,40,15.00
2008,08,29,06,41,15.00
2008,08,29,06,42,15.00
2008,08,29,06,43,15.00
2008,08,29,06,44,15.00
2008,08,29,06,45,15.00
2008,08,29,06,46,15.00
2008,08,29,06,47,15.00
2008,08,29,06,48,15.00
2008,08,29,06,49,15.00
2008,08,29,06,50,15.00
2008,08,29,06,51,15.00
2008,08,29,06,52,15.00
2008,08,29,06,53,15.00
2008,08,29,06,54,15.00
2008,08,29,06,55,15.00
2008,08,29,06,56,15.00
2008,08,29,06,57,15.10
2008,08,29,06,58,15.10
2008,08,29,06,59,15.10
2008,08,29,07,00,15.10
2008,08,29,07,01,15.10
2008,08,29,07,02,15.10
2008,08,29,07,03,15.10
2008,08,29,07,04,15.10
2008,08,29,07,05,15.10
2008,08,29,07,06,15.10
2008,08,29,07,07,15.10
2008,08,29,07,08,15.10
2008,08,29,07,09,15.10
2008,08,29,07,10,15.10
2008,08,29,07,11,15.10
2008,08,29,07,12,15.10
2008,08,29,07,13,15.10
2008,08,29,07,14,15.00
2008,08,29,07,15,15.00
2008,08,29,07,16,15.00
2008,08,29,07,17,14.90
2008,08,29,07,18,14.90
2008,08,29,07,19,14.90
2008,08,29,07,20,14.80
2008,08,29,07,21,14.80
2008,08,29,07,22,14.80
2008,08,29,07,23,14.80
2008,08,29,07,24,14.80
2008,08,29,07,25,14.80
2008,08,29,07,26,14.80
2008,08,29,07,27,14.80
2008,08,29,07,28,14.80
2008,08,29,07,29,14.80
2008,08,29,07,30,14.70
2008,08,29,07,31,14.70
2008,08,29,07,32,14.70
2008,08,29,07,33,14.70
2008,08,29,07,34,14.80
2008,08,29,07,35,14.80
2008,08,29,07,36,14.80
2008,08,29,07,37,14.80
2008,08,29,07,38,14.80
2008,08,29,07,39,14.80
2008,08,29,07,40,14.80
2008,08,29,07,41,14.80
2008,08,29,07,42,14.80
2008,08,29,07,43,14.90
2008,08,29,07,44,14.90
2008,08,29,07,45,14.90
2008,08,29,07,46,14.90
2008,08,29,07,47,14.80
2008,08,29,07,48,14.80
2008,08,29,07,49,14.80
2008,08,29,07,50,14.80
2008,08,29,07,51,14.80
2008,08,29,07,52,14.70
2008,08,29,07,53,14.70
2008,08,29,07,54,14.70
2008,08,29,07,55,14.60
2008,08,29,07,56,14.60
2008,08,29,07,57,14.60
2008,08,29,07,58,14.60
2008,08,29,07,59,14.60
2008,08,29,08,00,14.60
2008,08,29,08,01,14.60
2008,08,29,08,02,14.60
2008,08,29,08,03,14.60
2008,08,29,08,04,14.60
2008,08,29,08,05,14.60
2008,08,29,08,06,14.60
2008,08,29,08,07,14.60
2008,08,29,08,08,14.70
2008,08,29,08,09,14.70
2008,08,29,08,10,14.70
2008,08,29,08,11,14.70
2008,08,29,08,12,14.70
2008,08,29,08,13,14.70
2008,08,29,08,14,14.70
2008,08,29,08,15,14.70
2008,08,29,08,16,14.70
2008,08,29,08,17,14.80
2008,08,29,08,18,14.80
2008,08,29,08,19,14.80
2008,08,29,08,20,14.80
2008,08,29,08,21,14.80
2008,08,29,08,22,14.80
2008,08,29,08,23,14.80
2008,08,29,08,24,14.80
2008,08,29,08,25,14.80
2008,08,29,08,26,14.80
2008,08,29,08,27,14.80
2008,08,29,08,28,14.80
2008,08,29,08,29,14.80
2008,08,29,08,30,14.80
2008,08,29,08,31,14.80
2008,08,29,08,32,14.80
2008,08,29,08,33,14.80
2008,08,29,08,34,14.80
2008,08,29,08,35,14.90
2008,08,29,08,36,14.90
2008,08,29,08,37,14.90
2008,08,29,08,38,15.00
2008,08,29,08,39,15.00
2008,08,29,08,40,15.10
2008,08,29,08,41,15.10
2008,08,29,08,42,15.10
2008,08,29,08,43,15.20
2008,08,29,08,44,15.20
2008,08,29,08,45,15.20
2008,08,29,08,46,15.20
2008,08,29,08,47,15.20
2008,08,29,08,48,15.30
2008,08,29,08,49,15.30
2008,08,29,08,50,15.30
2008,08,29,08,51,15.30
2008,08,29,08,52,15.30
2008,08,29,08,53,15.30
2008,08,29,08,54,15.30
2008,08,29,08,55,15.30
2008,08,29,08,56,15.30
2008,08,29,08,57,15.30
2008,08,29,08,58,15.30
2008,08,29,08,59,15.30
2008,08,29,09,00,15.30
2008,08,29,09,01,15.30
2008,08,29,09,02,15.30
2008,08,29,09,03,15.30
2008,08,29,09,04,15.30
2008,08,29,09,05,15.30
2008,08,29,09,06,15.30
2008,08,29,09,07,15.30
2008,08,29,09,08,15.30
2008,08,29,09,09,15.30
2008,08,29,09,10,15.40
2008,08,29,09,11,15.40
2008,08,29,09,12,15.40
2008,08,29,09,13,15.40
2008,08,29,09,14,15.40
2008,08,29,09,15,15.40
2008,08,29,09,16,15.40
2008,08,29,09,17,15.40
2008,08,29,09,18,15.40
2008,08,29,09,19,15.40
2008,08,29,09,20,15.40
2008,08,29,09,21,15.30
2008,08,29,09,22,15.30
2008,08,29,09,23,15.30
2008,08,29,09,24,15.30
2008,08,29,09,25,15.30
2008,08,29,09,26,15.30
2008,08,29,09,27,15.40
2008,08,29,09,28,15.40
2008,08,29,09,29,15.40
2008,08,29,09,30,15.40
2008,08,29,09,31,15.50
2008,08,29,09,32,15.50
2008,08,29,09,33,15.50
2008,08,29,09,34,15.50
2008,08,29,09,35,15.50
2008,08,29,09,36,15.50
2008,08,29,09,37,15.50
2008,08,29,09,38,15.50
2008,08,29,09,39,15.60
2008,08,29,09,40,15.60
2008,08,29,09,41,15.60
2008,08,29,09,42,15.60
2008,08,29,09,43,15.60
2008,08,29,09,44,15.60
2008,08,29,09,45,15.60
2008,08,29,09,46,15.30
2008,08,29,09,47,15.00
2008,08,29,09,48,14.80
2008,08,29,09,49,14.60
2008,08,29,09,50,14.40
2008,08,29,09,51,14.20
2008,08,29,09,52,14.20
2008,08,29,09,53,14.20
2008,08,29,09,54,14.10
2008,08,29,09,55,14.00
2008,08,29,09,56,14.00
2008,08,29,09,57,14.00
2008,08,29,09,58,14.00
2008,08,29,09,59,14.00
2008,08,29,10,00,14.10
2008,08,29,10,01,14.00
2008,08,29,10,02,14.00
2008,08,29,10,03,13.90
2008,08,29,10,04,13.90
2008,08,29,10,05,13.90
2008,08,29,10,06,13.90
2008,08,29,10,07,13.90
2008,08,29,10,08,13.90
2008,08,29,10,09,13.90
2008,08,29,10,10,13.90
2008,08,29,10,11,13.90
2008,08,29,10,12,13.90
2008,08,29,10,13,13.90
2008,08,29,10,14,13.90
2008,08,29,10,15,13.90
2008,08,29,10,16,13.90
2008,08,29,10,17,13.90
2008,08,29,10,18,13.90
2008,08,29,10,19,14.00
2008,08,29,10,20,13.90
2008,08,29,10,21,13.80
2008,08,29,10,22,13.80
2008,08,29,10,23,13.80
2008,08,29,10,24,13.80
2008,08,29,10,25,13.70
2008,08,29,10,26,13.70
2008,08,29,10,27,13.70
2008,08,29,10,28,13.70
2008,08,29,10,29,13.70
2008,08,29,10,30,13.70
2008,08,29,10,31,13.80
2008,08,29,10,32,13.80
2008,08,29,10,33,13.80
2008,08,29,10,34,13.90
2008,08,29,10,35,14.00
2008,08,29,10,36,14.10
2008,08,29,10,37,14.10
2008,08,29,10,38,14.20
2008,08,29,10,39,14.20
2008,08,29,10,40,14.30
2008,08,29,10,41,14.40
2008,08,29,10,42,14.50
2008,08,29,10,43,14.50
2008,08,29,10,44,14.60
2008,08,29,10,45,14.70
2008,08,29,10,46,14.80
2008,08,29,10,47,15.00
2008,08,29,10,48,15.10
2008,08,29,10,49,15.20
2008,08,29,10,50,15.30
2008,08,29,10,51,15.50
2008,08,29,10,52,15.60
2008,08,29,10,53,15.70
2008,08,29,10,54,15.80
2008,08,29,10,55,15.80
2008,08,29,10,56,15.90
2008,08,29,10,57,16.00
2008,08,29,10,58,16.10
2008,08,29,10,59,16.10
2008,08,29,11,00,16.10
2008,08,29,11,01,16.10
2008,08,29,11,02,16.10
2008,08,29,11,03,16.20
2008,08,29,11,04,16.20
2008,08,29,11,05,16.20
2008,08,29,11,06,16.20
2008,08,29,11,07,16.30
2008,08,29,11,08,16.30
2008,08,29,11,09,16.40
2008,08,29,11,10,16.40
2008,08,29,11,11,16.40
2008,08,29,11,12,16.40
2008,08,29,11,13,16.50
2008,08,29,11,14,16.60
2008,08,29,11,15,16.60
2008,08,29,11,16,16.60
2008,08,29,11,17,16.70
2008,08,29,11,18,16.70
2008,08,29,11,19,16.70
2008,08,29,11,20,16.70
2008,08,29,11,21,16.70
2008,08,29,11,22,16.80
2008,08,29,11,23,16.80
2008,08,29,11,24,16.80
2008,08,29,11,25,16.80
2008,08,29,11,26,16.80
2008,08,29,11,27,16.80
2008,08,29,11,28,16.90
2008,08,29,11,29,16.90
2008,08,29,11,30,16.90
2008,08,29,11,31,16.90
2008,08,29,11,32,17.00
2008,08,29,11,33,17.10
2008,08,29,11,34,17.10
2008,08,29,11,35,17.20
2008,08,29,11,36,17.20
2008,08,29,11,37,17.30
2008,08,29,11,38,17.30
2008,08,29,11,39,17.30
2008,08,29,11,40,17.40
2008,08,29,11,41,17.40
2008,08,29,11,42,17.50
2008,08,29,11,43,17.50
2008,08,29,11,44,17.50
2008,08,29,11,45,17.50
2008,08,29,11,46,17.60
2008,08,29,11,47,17.70
2008,08,29,11,48,17.70
2008,08,29,11,49,17.80
2008,08,29,11,50,17.90
2008,08,29,11,51,17.90
2008,08,29,11,52,17.90
2008,08,29,11,53,17.90
2008,08,29,11,54,17.90
2008,08,29,11,55,17.90
2008,08,29,11,56,18.00
2008,08,29,11,57,18.10
2008,08,29,11,58,18.10
2008,08,29,11,59,18.10
2008,08,29,12,00,18.20
2008,08,29,12,01,18.20
2008,08,29,12,02,18.20
2008,08,29,12,03,18.20
2008,08,29,12,04,18.20
2008,08,29,12,05,18.40
2008,08,29,12,06,18.50
2008,08,29,12,07,18.60
2008,08,29,12,08,18.70
2008,08,29,12,09,18.70
2008,08,29,12,10,18.80
2008,08,29,12,11,18.80
2008,08,29,12,12,18.90
2008,08,29,12,13,19.00
2008,08,29,12,14,19.10
2008,08,29,12,15,19.10
2008,08,29,12,16,19.30
2008,08,29,12,17,19.40
2008,08,29,12,18,19.50
2008,08,29,12,19,19.60
2008,08,29,12,20,19.70
2008,08,29,12,21,19.90
2008,08,29,12,22,19.90
2008,08,29,12,23,20.00
2008,08,29,12,24,20.10
2008,08,29,12,25,20.30
2008,08,29,12,26,20.40
2008,08,29,12,27,20.50
2008,08,29,12,28,20.50
2008,08,29,12,29,20.50
2008,08,29,12,30,20.60
2008,08,29,12,31,20.60
2008,08,29,12,32,20.60
2008,08,29,12,33,20.50
2008,08,29,12,34,20.40
2008,08,29,12,35,20.30
2008,08,29,12,36,20.20
2008,08,29,12,37,20.20
2008,08,29,12,38,20.20
2008,08,29,12,39,20.20
2008,08,29,12,40,20.20
2008,08,29,12,41,20.20
2008,08,29,12,42,20.20
2008,08,29,12,43,20.20
2008,08,29,12,44,20.20
2008,08,29,12,45,20.20
2008,08,29,12,46,20.30
2008,08,29,12,47,20.30
2008,08,29,12,48,20.30
2008,08,29,12,49,20.30
2008,08,29,12,50,20.30
2008,08,29,12,51,20.20
2008,08,29,12,52,20.20
2008,08,29,12,53,20.20
2008,08,29,12,54,20.10
2008,08,29,12,55,20.10
2008,08,29,12,56,20.00
2008,08,29,12,57,19.90
2008,08,29,12,58,19.80
2008,08,29,12,59,19.70
2008,08,29,13,00,19.70
2008,08,29,13,01,19.70
2008,08,29,13,02,19.70
2008,08,29,13,03,19.80
2008,08,29,13,04,19.90
2008,08,29,13,05,19.90
2008,08,29,13,06,20.00
2008,08,29,13,07,20.10
2008,08,29,13,08,20.20
2008,08,29,13,09,20.30
2008,08,29,13,10,20.40
2008,08,29,13,11,20.40
2008,08,29,13,12,20.50
2008,08,29,13,13,20.50
2008,08,29,13,14,20.60
2008,08,29,13,15,20.60
2008,08,29,13,16,20.60
2008,08,29,13,17,20.60
2008,08,29,13,18,20.60
2008,08,29,13,19,20.60
2008,08,29,13,20,20.60
2008,08,29,13,21,20.60
2008,08,29,13,22,20.60
2008,08,29,13,23,20.60
2008,08,29,13,24,20.60
2008,08,29,13,25,20.60
2008,08,29,13,26,20.60
2008,08,29,13,27,20.60
2008,08,29,13,28,20.60
2008,08,29,13,29,20.60
2008,08,29,13,30,20.60
2008,08,29,13,31,20.60
2008,08,29,13,32,20.60
2008,08,29,13,33,20.60
2008,08,29,13,34,20.60
2008,08,29,13,35,20.60
2008,08,29,13,36,20.60
2008,08,29,13,37,20.60
2008,08,29,13,38,20.60
2008,08,29,13,39,20.50
2008,08,29,13,40,20.40
2008,08,29,13,41,20.30
2008,08,29,13,42,20.30
2008,08,29,13,43,20.20
2008,08,29,13,44,20.20
2008,08,29,13,45,20.20
2008,08,29,13,46,20.20
2008,08,29,13,47,20.20
2008,08,29,13,48,20.20
2008,08,29,13,49,20.20
2008,08,29,13,50,20.20
2008,08,29,13,51,20.20
2008,08,29,13,52,20.30
2008,08,29,13,53,20.30
2008,08,29,13,54,20.30
2008,08,29,13,55,20.30
2008,08,29,13,56,20.30
2008,08,29,13,57,20.30
2008,08,29,13,58,20.30
2008,08,29,13,59,20.30
2008,08,29,14,00,20.30
2008,08,29,14,01,20.30
2008,08,29,14,02,20.40
2008,08,29,14,03,20.40
2008,08,29,14,04,20.40
2008,08,29,14,05,20.50
2008,08,29,14,06,20.50
2008,08,29,14,07,20.60
2008,08,29,14,08,20.60
2008,08,29,14,09,20.60
2008,08,29,14,10,20.60
2008,08,29,14,11,20.60
2008,08,29,14,12,20.70
2008,08,29,14,13,20.70
2008,08,29,14,14,20.80
2008,08,29,14,15,20.90
2008,08,29,14,16,20.90
2008,08,29,14,17,20.90
2008,08,29,14,18,20.90
2008,08,29,14,19,20.80
2008,08,29,14,20,20.80
2008,08,29,14,21,20.80
2008,08,29,14,22,20.70
2008,08,29,14,23,20.70
2008,08,29,14,24,20.70
2008,08,29,14,25,20.70
2008,08,29,14,26,20.70
2008,08,29,14,27,20.70
2008,08,29,14,28,20.80
2008,08,29,14,29,20.80
2008,08,29,14,30,20.80
2008,08,29,14,31,20.90
2008,08,29,14,32,21.00
2008,08,29,14,33,21.10
2008,08,29,14,34,21.10
2008,08,29,14,35,21.10
2008,08,29,14,36,21.10
2008,08,29,14,37,21.00
2008,08,29,14,38,21.10
2008,08,29,14,39,21.00
2008,08,29,14,40,21.00
2008,08,29,14,41,21.00
2008,08,29,14,42,21.00
2008,08,29,14,43,21.00
2008,08,29,14,44,21.00
2008,08,29,14,45,21.00
2008,08,29,14,46,20.90
2008,08,29,14,47,20.90
2008,08,29,14,48,21.00
2008,08,29,14,49,21.00
2008,08,29,14,50,21.00
2008,08,29,14,51,21.00
2008,08,29,14,52,21.00
2008,08,29,14,53,21.00
2008,08,29,14,54,21.00
2008,08,29,14,55,21.00
2008,08,29,14,56,21.00
2008,08,29,14,57,21.00
2008,08,29,14,58,21.10
2008,08,29,14,59,21.10
2008,08,29,15,00,21.10
2008,08,29,15,01,21.10
2008,08,29,15,02,21.20
2008,08,29,15,03,21.20
2008,08,29,15,04,21.30
2008,08,29,15,05,21.30
2008,08,29,15,06,21.30
2008,08,29,15,07,21.20
2008,08,29,15,08,21.20
2008,08,29,15,09,21.30
2008,08,29,15,10,21.30
2008,08,29,15,11,21.30
2008,08,29,15,12,21.30
2008,08,29,15,13,21.30
2008,08,29,15,14,21.20
2008,08,29,15,15,21.20
2008,08,29,15,16,21.20
2008,08,29,15,17,21.20
2008,08,29,15,18,21.10
2008,08,29,15,19,21.10
2008,08,29,15,20,20.90
2008,08,29,15,21,20.80
2008,08,29,15,22,20.70
2008,08,29,15,23,20.60
2008,08,29,15,24,20.60
2008,08,29,15,25,20.50
2008,08,29,15,26,20.50
2008,08,29,15,27,20.40
2008,08,29,15,28,20.40
2008,08,29,15,29,20.30
2008,08,29,15,30,20.40
2008,08,29,15,31,20.40
2008,08,29,15,32,20.40
2008,08,29,15,33,20.40
2008,08,29,15,34,20.50
2008,08,29,15,35,20.50
2008,08,29,15,36,20.60
2008,08,29,15,37,20.60
2008,08,29,15,38,20.60
2008,08,29,15,39,20.60
2008,08,29,15,40,20.60
2008,08,29,15,41,20.50
2008,08,29,15,42,20.50
2008,08,29,15,43,20.60
2008,08,29,15,44,20.50
2008,08,29,15,45,20.50
2008,08,29,15,46,20.50
2008,08,29,15,47,20.50
2008,08,29,15,48,20.50
2008,08,29,15,49,20.50
2008,08,29,15,50,20.50
2008,08,29,15,51,20.60
2008,08,29,15,52,20.60
2008,08,29,15,53,20.70
2008,08,29,15,54,20.80
2008,08,29,15,55,20.90
2008,08,29,15,56,20.90
2008,08,29,15,57,20.80
2008,08,29,15,58,20.80
2008,08,29,15,59,20.90
2008,08,29,16,00,20.90
2008,08,29,16,01,21.00
2008,08,29,16,02,21.00
2008,08,29,16,03,21.00
2008,08,29,16,04,21.00
2008,08,29,16,05,21.10
2008,08,29,16,06,21.10
2008,08,29,16,07,21.10
2008,08,29,16,08,21.10
2008,08,29,16,09,21.10
2008,08,29,16,10,21.10
2008,08,29,16,11,21.20
2008,08,29,16,12,21.20
2008,08,29,16,13,21.10
2008,08,29,16,14,21.10
2008,08,29,16,15,21.00
2008,08,29,16,16,21.00
2008,08,29,16,17,20.90
2008,08,29,16,18,20.90
2008,08,29,16,19,20.90
2008,08,29,16,20,20.90
2008,08,29,16,21,21.00
2008,08,29,16,22,21.00
2008,08,29,16,23,20.90
2008,08,29,16,24,21.00
2008,08,29,16,25,20.90
2008,08,29,16,26,20.90
2008,08,29,16,27,20.90
2008,08,29,16,28,20.90
2008,08,29,16,29,20.90
2008,08,29,16,30,20.90
2008,08,29,16,31,20.90
2008,08,29,16,32,21.00
2008,08,29,16,33,21.00
2008,08,29,16,34,21.00
2008,08,29,16,35,21.00
2008,08,29,16,36,21.00
2008,08,29,16,37,21.00
2008,08,29,16,38,21.10
2008,08,29,16,39,21.10
2008,08,29,16,40,21.20
2008,08,29,16,41,21.10
2008,08,29,16,42,21.20
2008,08,29,16,43,21.20
2008,08,29,16,44,21.20
2008,08,29,16,45,21.20
2008,08,29,16,46,21.20
2008,08,29,16,47,21.10
2008,08,29,16,48,21.10
2008,08,29,16,49,21.00
2008,08,29,16,50,20.90
2008,08,29,16,51,20.80
2008,08,29,16,52,20.70
2008,08,29,16,53,20.60
2008,08,29,16,54,20.60
2008,08,29,16,55,20.60
2008,08,29,16,56,20.70
2008,08,29,16,57,20.70
2008,08,29,16,58,20.80
2008,08,29,16,59,20.90
2008,08,29,17,00,20.80
2008,08,29,17,01,20.80
2008,08,29,17,02,20.80
2008,08,29,17,03,20.80
2008,08,29,17,04,20.80
2008,08,29,17,05,20.80
2008,08,29,17,06,20.70
2008,08,29,17,07,20.60
2008,08,29,17,08,20.50
2008,08,29,17,09,20.50
2008,08,29,17,10,20.40
2008,08,29,17,11,20.30
2008,08,29,17,12,20.20
2008,08,29,17,13,20.20
2008,08,29,17,14,20.20
2008,08,29,17,15,20.10
2008,08,29,17,16,20.10
2008,08,29,17,17,20.10
2008,08,29,17,18,20.10
2008,08,29,17,19,20.10